Burnet, TX

3:45 PM CDT on April 26, 2017 (GMT -0500)
Burnet Municipal-Craddock

Weather History for KBMQ - December, 2012

Change the Weather History Date:

Saturday, December 22, 2012

  Actual Average Record
Temperature  
Mean Temperature 49 °F -  
Max Temperature 64 °F 55 °F 77 °F (2015)
Min Temperature 34 °F 34 °F 23 °F (1998)
Degree Days  
Heating Degree Days 16    
Moisture  
Dew Point 36 °F    
Average Humidity 54    
Maximum Humidity 77    
Minimum Humidity 34    
Precipitation  
Precipitation 0.00 in - - ()
Sea Level Pressure  
Sea Level Pressure 30.22 in    
Wind  
Wind Speed 5 mph (SSW)    
Max Wind Speed 21 mph    
Max Gust Speed 32 mph    
Visibility 10 miles    
Events      
Averages and records for this station are not official NWS values.
T = Trace of Precipitation, MM = Missing Value Source: NWS Daily Summary

Daily Weather History Graph

Daily Weather History Graph

Search for Another Location

Airport or City:

Trip Planner

Search our weather history database for the weather conditions in past years. The results will help you decide how hot, cold, wet, or windy it might be!

Date:

Astronomy

Dec. 22, 2012 Rise Set
Actual Time 7:27 AM CST 5:36 PM CST
Civil Twilight 7:00 AM CST 6:03 PM CST
Nautical Twilight 6:30 AM CST 6:33 PM CST
Astronomical Twilight 6:00 AM CST 7:02 PM CST
Moon 1:44 PM CST (12/22) 2:26 AM CST (12/22)
Length of Visible Light 11h 02m
Length of Day
10h 09m
Waxing Gibbous, 74% of the Moon is Illuminated
Dec 22
Waxing Gibbous
Dec 28
Full
Jan 4
Last Quarter
Jan 11
New
Jan 18
First Quarter

Hourly Weather History & Observations

Time (CST) Temp. Dew Point Humidity Pressure Visibility Wind Dir Wind Speed Gust Speed Precip Events Conditions
12:53 AM 39.0 °F 12.9 °F 34% 30.36 in 10.0 mi Calm Calm - N/A   Clear
1:53 AM 37.0 °F 12.9 °F 37% 30.34 in 10.0 mi Calm Calm - N/A   Clear
3:53 AM 37.0 °F 12.9 °F 37% 30.31 in 10.0 mi Calm Calm - N/A   Clear
4:53 AM 34.0 °F 14.0 °F 44% 30.31 in 10.0 mi Calm Calm - N/A   Clear
5:53 AM 34.0 °F 15.1 °F 46% 30.31 in 10.0 mi Calm Calm - N/A   Clear
6:53 AM 34.0 °F 15.1 °F 46% 30.32 in 10.0 mi Calm Calm - N/A   Clear
7:53 AM 35.1 °F 18.0 °F 50% 30.33 in 10.0 mi Calm Calm - N/A   Clear
8:53 AM 44.1 °F 21.9 °F 42% 30.33 in 10.0 mi Calm Calm - N/A   Clear
9:53 AM 51.1 °F 34.0 °F 52% 30.33 in 10.0 mi South 10.4 mph - N/A   Clear
10:53 AM 55.9 °F 39.9 °F 55% 30.30 in 10.0 mi South 12.7 mph 20.7 mph N/A   Clear
11:53 AM 61.0 °F 43.0 °F 52% 30.27 in 10.0 mi South 20.7 mph 32.2 mph N/A   Clear
12:53 PM 63.0 °F 43.0 °F 48% 30.22 in 10.0 mi SSW 19.6 mph 26.5 mph N/A   Mostly Cloudy
1:53 PM 63.0 °F 43.0 °F 48% 30.19 in 10.0 mi SSW 17.3 mph 24.2 mph N/A   Mostly Cloudy
2:53 PM 64.9 °F 44.1 °F 47% 30.16 in 10.0 mi SSW 16.1 mph 23.0 mph N/A   Mostly Cloudy
3:53 PM 64.0 °F 45.0 °F 50% 30.15 in 10.0 mi South 19.6 mph 25.3 mph N/A   Overcast
4:53 PM 63.0 °F 46.0 °F 54% 30.14 in 10.0 mi SSW 11.5 mph 19.6 mph N/A   Clear
5:53 PM 62.1 °F 46.9 °F 58% 30.12 in 10.0 mi South 12.7 mph - N/A   Scattered Clouds
6:53 PM 60.1 °F 46.9 °F 62% 30.12 in 10.0 mi South 8.1 mph - N/A   Clear
7:53 PM 59.0 °F 46.9 °F 64% 30.13 in 10.0 mi South 5.8 mph - N/A   Mostly Cloudy
8:53 PM 59.0 °F 48.0 °F 67% 30.13 in 10.0 mi SSW 5.8 mph - N/A   Overcast
9:53 PM 57.9 °F 48.0 °F 70% 30.10 in 10.0 mi South 6.9 mph - N/A   Mostly Cloudy
10:16 PM 59.0 °F 48.0 °F 67% 30.12 in 10.0 mi South 5.8 mph - N/A   Mostly Cloudy
10:53 PM 57.9 °F 48.9 °F 72% 30.09 in 10.0 mi South 5.8 mph - N/A   Mostly Cloudy
11:32 PM 55.9 °F 48.9 °F 77% 30.11 in 10.0 mi South 4.6 mph - N/A   Mostly Cloudy
11:53 PM 55.0 °F 48.0 °F 77% 30.09 in 10.0 mi SSW 4.6 mph - N/A   Mostly Cloudy